Regional Weather Roundup
Issued by NWS

Home | Current Version | Previous Version | Text Only | Print | Product List | Glossary Off
Versions: 1 2 3 4 5 6 7 8 9 10 11 12 13 14 15 16 17 18 19 20 21 22 23 24 25 26 27 28 29 30 31 32 33 34 35 36 37 38 39 40 41 42 43 44 45 46 47 48 49 50

000
ASUS43 KLOT 191010
RWRIL

ILLINOIS REGIONAL WEATHER ROUNDUP
NATIONAL WEATHER SERVICE CHICAGO/ROMEOVILLE IL
400 AM CST FRI DEC 19 2014

NOTE: "FAIR" INDICATES FEW OR NO CLOUDS BELOW 12,000 FEET WITH NO
SIGNIFICANT WEATHER AND/OR OBSTRUCTIONS TO VISIBILITY.

* THESE STATIONS ARE NOT UNDER NWS QUALITY CONTROL. THEY ALSO MAY NOT
  REPORT WEATHER SUCH AS PRECIPITATION OR FOG.

ILZ001-002-007-009-015-016-024-191100-
NORTHWEST ILLINOIS

CITY           SKY/WX    TMP DP  RH WIND       PRES   REMARKS
MOLINE         CLEAR     16  12  84 CALM      30.30F
STERLING*      CLOUDY    25  18  74 W7        30.30S WCI  17
SAVANNA*       CLOUDY    26  19  76 CALM      30.31F
$$

ILZ003-004-008-010-011-017-018-191100-
NORTH CENTRAL ILLINOIS

CITY           SKY/WX    TMP DP  RH WIND       PRES   REMARKS
ROCKFORD       CLOUDY    27  20  75 NW8       30.30S WCI  19
FREEPORT*      CLOUDY    25  21  85 W5        30.30F WCI  19
ROCHELLE*      CLOUDY    25  21  84 NW6       30.29R WCI  18
DE KALB*       CLOUDY    24  21  86 NW3       30.27S
PERU*          CLOUDY    20  17  88 W5        30.29F WCI  13
$$

ILZ005-006-012>014-019>023-191100-
NORTHEAST ILLINOIS

CITY           SKY/WX    TMP DP  RH WIND       PRES   REMARKS
CHICAGO-OHARE  CLOUDY    28  23  81 NW6       30.26S WCI  22
CHICAGO-MIDWAY FLURRIES  30  23  75 W6        30.27F WCI  24
AURORA         CLOUDY    26  20  77 W5        30.28S WCI  20
LANSING*       CLOUDY    28  23  81 W5        30.27S WCI  23
JOLIET*        CLOUDY    26  20  80 W5        30.29S WCI  20
WAUKEGAN       CLOUDY    27  21  78 W6        30.27R WCI  20
DUPAGE AIRPORT CLOUDY    27  21  78 W5        30.27S WCI  22
KANKAKEE*      CLOUDY    25  23  89 W7        30.29S WCI  18
WHEELING       CLOUDY    28  23  81 N6        30.29S WCI  22
MORRIS*        CLOUDY    22  20  92 W6        30.29S WCI  15
ROMEOVILLE*    CLOUDY    27  21  80 NW6       30.28S WCI  20
NORTHERLY ISL    N/A     30  25  81 W7          N/A  WCI  23
$$

LMZ740>746-191100-
SOUTHERN LAKE MICHIGAN

STATION/POSITION SKY/WX   TEMP    WIND        PRES    VSBY  WAVE
                          AIR SEA DIR/SP/G                  HT/PER
                          (F)     (DEG/KT/KT) (MB)    (MI)  (FT/S)
WAUKEGAN HARBOR            28     280/  5/  7   N/A
HARRISON CRIB              29     320/ 11/ 12   N/A
BURNHAM HARBOR             30     290/  5/  8   N/A
CALUMET HARBOR             29     280/  4/  6 1023.6R
$$

ILZ025>027-034>036-040-047-049-050-058-095>099-191100-
WEST-CENTRAL ILLINOIS

CITY           SKY/WX    TMP DP  RH WIND       PRES   REMARKS
QUINCY         CLOUDY    28  24  85 CALM      30.28S
GALESBURG*     CLOUDY    22  20  91 NE3       30.28F
MACOMB*        CLOUDY    28  24  86 CALM      30.30F
JACKSONVILLE*  CLOUDY    31  25  80 CALM      30.29S
PITTSFIELD*    CLOUDY    30  28  91 CALM      30.30R
$$

ILZ028>032-037-038-041>044-048-051>054-059>061-191100-
CENTRAL ILLINOIS

CITY           SKY/WX    TMP DP  RH WIND       PRES   REMARKS
PONTIAC        CLEAR     19  17  90 NW3       30.30S
BLOOMINGTON    CLEAR     19  17  92 CALM      30.29S
DECATUR        PTCLDY    22  19  89 CALM      30.29S
PEORIA         CLEAR     20  15  81 CALM      30.29F
LACON*         CLEAR     14  11  89 CALM      30.29F
LINCOLN*       CLEAR     21  19  92 CALM      30.32R
SPRINGFIELD    CLOUDY    29  23  78 N3        30.30R
TAYLORVILLE    CLOUDY    28  25  86 NE6       30.29S WCI  22
$$

ILZ033-039-045-046-055>057-062-063-191100-
EAST-CENTRAL ILLINOIS

CITY           SKY/WX    TMP DP  RH WIND       PRES   REMARKS
CHAMPAIGN      CLEAR     18  14  84 N3        30.28S
DANVILLE*      CLEAR     19  17  92 N3        30.25F
RANTOUL*       CLEAR     22  19  87 N7        30.27F WCI  13
MATTOON        CLEAR     23  19  85 N6        30.28R WCI  16
PARIS*         CLEAR     23  21  93 CALM      30.29S
$$

ILZ079-100>102-191100-
SOUTHWEST ILLINOIS

CITY           SKY/WX    TMP DP  RH WIND       PRES   REMARKS
ALTON          CLOUDY    31  27  86 CALM      30.30S
BELLEVILLE     PTCLDY    27  26  98 CALM      30.28F
CAHOKIA*       CLOUDY    33  28  81 NE3       30.29F
SPARTA*        CLOUDY    31  28  88 CALM      30.29F
$$

ILZ064>066-069>071-074>076-080>082-084>086-088>090-092>094-191100-
SOUTH-CENTRAL ILLINOIS

CITY           SKY/WX    TMP DP  RH WIND       PRES   REMARKS
CARBONDALE     CLOUDY    32  26  78 NE3       30.28F
CAIRO*         CLOUDY    37  32  84 N8        30.25F WCI  30
EFFINGHAM*     CLEAR     26  23  86 CALM      30.31R FOG
MARION         CLOUDY    32  28  86 CALM      30.28F
MT. VERNON     PTCLDY    25  19  80 CALM      30.29S
CENTRALIA*     CLOUDY    31  26  83 N3        30.29S
SALEM*         CLOUDY    32  28  84 CALM      30.30R
METROPOLIS*    CLOUDY    33  31  90 N5        30.25F FOG     WCI  29
$$

ILZ067-068-072-073-078-083-087-091-191100-
SOUTHEAST ILLINOIS

CITY           SKY/WX    TMP DP  RH WIND       PRES   REMARKS
LAWRENCEVILLE  CLEAR     26  23  88 N5        30.30S WCI  20
FLORA*         CLEAR     27  25  90 N3        30.30S FOG
FAIRFIELD*     CLOUDY    30  28  94 CALM      30.28S FOG
HARRISBURG*    CLOUDY    32  28  86 CALM      30.30S
ROBINSON*      CLOUDY    28  25  87 NW3       30.31R
CARMI*         CLOUDY    33  29  88 N3        30.29R
$$

ABBREVIATIONS USED IN REMARKS
   TC - TEMPERATURE IN CELSIUS
  WCI - WIND CHILL INDEX
   HX - HEAT INDEX
  VSB - VISIBILITY
$$



USA.gov is the U.S. government's official web portal to all federal, state and local government web resources and services.